QPF
0.00 0.00 0.01 0.01 0.01 0.01 0.01 0.01 0.00 0.00 0.00 0.00 0.00 0.00 0.00 0.00 0.00 0.00 0.00 0.01 0.02 0.04
0.00 0.01 0.01 0.01 0.01 0.01 0.01 0.02 0.01 0.01 0.01 0.01 0.01 0.01 0.00 0.00 0.00 0.00 0.00 0.00 0.01 0.05
0.00 0.02 0.03 0.04 0.04 0.04 0.04 0.03 0.02 0.03 0.02 0.02 0.02 0.01 0.01 0.01 0.00 0.00 0.00 0.00 0.00 0.01
0.05 0.07 0.07 0.08 0.08 0.06 0.05 0.05 0.04 0.05 0.04 0.04 0.03 0.02 0.03 0.03 0.01 0.01 0.00 0.00 0.00 0.00
0.11 0.07 0.06 0.07 0.07 0.07 0.05 0.04 0.04 0.05 0.04 0.04 0.03 0.02 0.02 0.02 0.03 0.03 0.03 0.02 0.00 0.00
0.07 0.08 0.10 0.12 0.12 0.11 0.08 0.06 0.04 0.04 0.05 0.03 0.03 0.02 0.02 0.02 0.01 0.03 0.03 0.03 0.02 0.01
0.02 0.04 0.06 0.07 0.08 0.06 0.04 0.05 0.06 0.06 0.07 0.05 0.03 0.02 0.02 0.02 0.01 0.01 0.01 0.01 0.02 0.02
0.00 0.00 0.00 0.01 0.02 0.01 0.01 0.01 0.02 0.01 0.03 0.03 0.05 0.07 0.04 0.03 0.02 0.01 0.01 0.01 0.02 0.03
0.00 0.00 0.00 0.00 0.00 0.00 0.00 0.00 0.00 0.00 0.00 0.01 0.03 0.03 0.04 0.05 0.06 0.03 0.03 0.06 0.09 0.09
0.00 0.00 0.00 0.00 0.00 0.00 0.00 0.00 0.00 0.00 0.00 0.00 0.01 0.00 0.00 0.00 0.01 0.02 0.02 0.03 0.05 0.05
0.00 0.00 0.00 0.00 0.00 0.00 0.00 0.00 0.00 0.00 0.00 0.00 0.00 0.00 0.00 0.00 0.00 0.00 0.01 0.03 0.03 0.03
0.00 0.00 0.00 0.00 0.00 0.00 0.00 0.00 0.00 0.00 0.00 0.00 0.00 0.00 0.00 0.00 0.00 0.00 0.00 0.00 0.01 0.01
0.00 0.00 0.00 0.00 0.00 0.00 0.00 0.00 0.00 0.00 0.00 0.00 0.00 0.00 0.00 0.00 0.00 0.00 0.00 0.00 0.00 0.00
0.00 0.00 0.00 0.00 0.00 0.00 0.00 0.00 0.00 0.00 0.00 0.00 0.00 0.00 0.00 0.00 0.00 0.00 0.00 0.00 0.00 0.00
MSLP
1021.22 1020.52 1019.50 1018.66 1017.79 1016.88 1015.84 1014.68 1013.63 1012.75 1012.07 1011.25 1010.52 1009.94 1009.62 1009.26 1009.18 1008.79 1008.24 1007.75 1007.39 1006.73
1021.49 1020.75 1019.92 1019.13 1018.27 1017.30 1016.34 1015.11 1013.97 1012.92 1011.86 1010.89 1010.03 1009.13 1008.71 1008.53 1008.38 1008.19 1007.75 1007.05 1006.80 1006.32
1021.92 1021.20 1020.43 1019.51 1018.64 1017.71 1016.60 1015.39 1014.22 1013.09 1011.96 1010.85 1009.82 1008.83 1007.42 1007.77 1007.64 1007.50 1007.14 1006.78 1006.43 1006.22
1022.55 1021.89 1020.94 1020.05 1019.17 1018.21 1017.07 1015.79 1014.61 1013.45 1012.40 1011.38 1010.36 1009.13 1008.04 1007.28 1007.07 1006.96 1006.81 1006.35 1006.05 1005.87
1023.32 1022.37 1021.61 1020.80 1019.98 1018.92 1017.72 1016.55 1015.34 1014.19 1013.14 1012.17 1011.15 1010.21 1009.37 1008.84 1008.53 1008.09 1007.83 1007.67 1007.28 1007.05
1023.97 1023.12 1022.44 1021.63 1020.72 1019.66 1018.56 1017.32 1016.25 1015.14 1014.10 1013.25 1012.42 1011.67 1011.02 1010.45 1009.93 1009.70 1009.58 1009.51 1008.84 1008.63
1024.54 1023.88 1023.16 1022.45 1021.53 1020.56 1019.51 1018.39 1017.34 1016.27 1015.35 1014.58 1013.93 1013.25 1012.67 1012.17 1011.73 1011.33 1011.15 1011.00 1010.53 1010.17
1025.28 1024.54 1023.75 1022.99 1022.34 1021.67 1020.61 1019.95 1018.94 1017.68 1016.64 1015.82 1015.19 1014.93 1014.39 1013.90 1013.51 1013.14 1012.60 1012.28 1012.12 1012.02
1025.94 1025.29 1024.67 1023.99 1023.32 1022.64 1021.95 1021.22 1020.42 1019.24 1018.49 1017.67 1017.26 1016.96 1016.20 1015.49 1014.93 1014.65 1014.27 1013.86 1013.74 1013.62
1026.68 1026.12 1025.66 1025.07 1024.39 1023.80 1023.12 1022.50 1021.69 1021.06 1020.22 1019.59 1019.33 1018.82 1018.25 1017.61 1016.77 1016.17 1016.03 1016.07 1015.59 1015.06
1027.19 1026.80 1026.46 1025.84 1025.48 1025.16 1024.66 1024.13 1023.60 1022.96 1022.35 1021.52 1021.06 1020.62 1020.10 1019.52 1018.95 1018.69 1018.23 1017.60 1016.98 1016.28
1027.60 1027.31 1026.97 1026.55 1026.27 1026.04 1025.70 1025.31 1024.89 1024.55 1023.82 1023.26 1022.50 1021.91 1021.39 1020.69 1020.41 1020.13 1019.93 1019.48 1018.88 1018.36
1027.97 1027.61 1027.43 1027.20 1026.87 1026.72 1026.34 1026.09 1025.77 1025.28 1025.02 1024.50 1023.92 1023.13 1022.51 1022.07 1021.60 1021.18 1020.80 1020.72 1020.45 1019.93
1028.44 1028.17 1027.99 1027.72 1027.48 1027.26 1026.96 1026.53 1026.16 1025.73 1025.70 1025.46 1025.04 1024.45 1023.80 1023.41 1022.98 1022.87 1022.54 1022.19 1021.93 1021.70
Thickness
5413 5414 5418 5420 5425 5429 5433 5440 5447 5456 5464 5475 5487 5496 5502 5509 5517 5529 5540 5551 5561 5575
5400 5402 5404 5405 5407 5411 5415 5423 5429 5436 5449 5464 5477 5488 5495 5500 5507 5517 5529 5541 5551 5565
5391 5390 5390 5392 5392 5396 5402 5410 5417 5424 5435 5451 5465 5477 5492 5492 5500 5509 5519 5528 5537 5548
5377 5377 5379 5380 5383 5388 5393 5400 5408 5416 5427 5439 5451 5465 5478 5488 5496 5502 5510 5518 5528 5538
5365 5369 5371 5373 5376 5380 5386 5392 5400 5409 5419 5428 5439 5450 5460 5467 5474 5482 5488 5494 5503 5512
5358 5361 5363 5366 5369 5374 5380 5387 5394 5403 5411 5419 5426 5434 5441 5449 5457 5462 5467 5471 5482 5489
5356 5355 5357 5359 5364 5369 5375 5381 5388 5395 5403 5409 5414 5420 5426 5432 5438 5444 5449 5454 5462 5470
5351 5353 5354 5356 5359 5362 5368 5371 5377 5386 5393 5399 5403 5403 5407 5413 5418 5424 5432 5438 5443 5447
5348 5349 5351 5352 5354 5357 5360 5363 5366 5375 5379 5385 5387 5388 5394 5400 5405 5409 5414 5420 5423 5426
5346 5347 5349 5350 5352 5354 5358 5359 5363 5365 5369 5371 5372 5374 5378 5382 5389 5393 5396 5397 5402 5408
5344 5345 5345 5347 5347 5347 5349 5350 5352 5354 5357 5361 5362 5362 5365 5368 5371 5371 5373 5380 5386 5391
5342 5342 5343 5343 5344 5343 5342 5343 5344 5344 5347 5350 5354 5355 5357 5361 5362 5363 5362 5364 5368 5369
5339 5341 5341 5341 5341 5340 5340 5339 5339 5340 5340 5342 5344 5348 5352 5354 5357 5357 5358 5357 5357 5359
5335 5336 5337 5337 5337 5336 5336 5337 5337 5338 5335 5334 5336 5338 5341 5342 5344 5343 5344 5345 5345 5344